Погода в Окунёвке

Россия / Республика Крым     45°22′07″N   32°45′42″E
темп.,
°C
ветер,
м/с
пор.,
м/с
влажн.,
%
обл.,
%
осадки,
мм/ч
давл.,
гПа
погр.,
м
7 мая, пт
пт700:00+13зсз33755 0.0 101428
03:00+13с22755 0.0 101521
06:00+13с228130 0.0 101631
09:00+13в2384100 0.0 101766
12:00+14ююв3376100 0.0 101757
15:00+15ю457285 0.0 101691
18:00+15ю5777100 0.0 1014122
21:00+14ю8128199 0.0 1014174
8 мая, сб
сб800:00+14ю101683100 0.0 1012236
03:00+14ю91585100 0.0 1011222
06:00+14ю81484100 0.0 1010208
09:00+15ююз698222 0.0 1011144
12:00+14з78885 0.0 1012153
15:00+14с121486100 0.0 1013505
18:00+13с121581100 0.0 1014876
21:00+12с111379100 0.4 1016849
9 мая, вс
вс900:00+12с81269100 1.6 10171480
03:00+11с11126862 1.7 1019828
06:00+10с1012683 0.0 10221091
09:00+10ссз1010660 0.0 1024965
12:00+11ссз89612 0.0 10251068
15:00+12сз88603 0.0 10261002
18:00+12зсз66570 0.0 1027532
21:00+13зсз566146 0.0 1028387
10 мая, пн
пн1000:00+13сз56710 0.0 1028265
03:00+12ссв556714 0.0 1028183
06:00+12св55665 0.0 1028224
09:00+13св46605 0.0 1028700
12:00+14с67550 0.0 1028908
15:00+14ссз67560 0.0 1026411
18:00+14зсз66650 0.0 1025479
21:00+13ссз66682 0.0 1027252
11 мая, вт
вт1100:00+13ссз577499 0.0 1023183
03:00+14ссз81169100 0.0 1021472
06:00+13с8107083 0.0 1020539
09:00+13с897288 0.0 1020558
12:00+15с687396 0.0 1019189
15:00+15ссз687513 0.0 1018103
18:00+16ссв687864 0.0 101798
21:00+14св5784100 0.0 1017394